Weather History for Lakeland Region, FL

Change the Weather History Date:

Thursday, November 15, 2012

  Actual Average Record
Temperature  
Mean Temperature 62 °F -  
Max Temperature 66 °F 75 °F 86 °F (1993)
Min Temperature 59 °F 58 °F 39 °F (1995)
Degree Days  
Heating Degree Days 2    
Growing Degree Days 12 (Base 50)    
Moisture  
Dew Point 61 °F    
Average Humidity 94    
Maximum Humidity 100    
Minimum Humidity 88    
Precipitation  
Precipitation 0.00 in - - ()
Sea Level Pressure  
Sea Level Pressure 30.13 in    
Wind  
Wind Speed 6 mph (NNE)    
Max Wind Speed 12 mph    
Max Gust Speed -    
Visibility 8 miles    
Events      
Averages and records for this station are not official NWS values.
T = Trace of Precipitation, MM = Missing Value Source: NWS Daily Summary

Daily Weather History Graph

Daily Weather History Graph

Search for Another Location

Airport:

Trip Planner

Search our weather history database for the weather conditions in past years. The results will help you decide how hot, cold, wet, or windy it might be!

Date:

Astronomy

Nov. 15, 2012 Rise Set
Actual Time 6:50 AM EST 5:35 PM EST
Civil Twilight 6:25 AM EST 6:00 PM EST
Nautical Twilight 5:56 AM EST 6:28 PM EST
Astronomical Twilight 5:28 AM EST 6:56 PM EST
Moon 8:38 AM EST (11/15) 7:30 PM EST (11/15)
Length of Visible Light 11h 34m
Length of Day
10h 45m
Waxing Crescent, 5% of the Moon is Illuminated
Nov 15
Waxing Crescent
Nov 20
First Quarter
Nov 28
Full
Dec 6
Last Quarter
Dec 13
New

Hourly Weather History & Observations

Time (EST) Temp. Dew Point Humidity Pressure Visibility Wind Dir Wind Speed Gust Speed Precip Events Conditions
12:15 AM 64.4 °F 62.6 °F 94% 30.14 in 10.0 mi North 4.6 mph - N/A   Overcast
12:35 AM 64.4 °F 62.6 °F 94% 30.13 in 10.0 mi NE 5.8 mph - N/A   Overcast
1:15 AM 64.4 °F 62.6 °F 94% 30.12 in 10.0 mi NNE 4.6 mph - N/A   Overcast
1:35 AM 64.4 °F 62.6 °F 94% 30.11 in 10.0 mi NNE 4.6 mph - N/A   Overcast
1:55 AM 64.4 °F 62.6 °F 94% 30.11 in 10.0 mi NNE 3.5 mph - N/A   Overcast
2:35 AM 64.4 °F 62.6 °F 94% 30.10 in 10.0 mi NE 6.9 mph - N/A   Overcast
3:15 AM 64.4 °F 62.6 °F 94% 30.09 in 7.0 mi NNE 3.5 mph - N/A   Overcast
3:35 AM 64.4 °F 62.6 °F 94% 30.09 in 7.0 mi NNE 5.8 mph - N/A   Overcast
3:55 AM 64.4 °F 62.6 °F 94% 30.09 in 5.0 mi NNE 5.8 mph - N/A   Overcast
4:15 AM 64.4 °F 62.6 °F 94% 30.09 in 5.0 mi NNE 5.8 mph - N/A   Overcast
4:55 AM 62.6 °F 62.6 °F 100% 30.09 in 5.0 mi North 4.6 mph - N/A   Overcast
5:15 AM 64.4 °F 62.6 °F 94% 30.09 in 5.0 mi North 5.8 mph - N/A   Overcast
5:35 AM 62.6 °F 62.6 °F 100% 30.10 in 4.0 mi North 5.8 mph - N/A   Overcast
5:50 AM 64.4 °F 64.4 °F 100% 30.10 in 4.0 mi North 4.6 mph - N/A   Overcast
6:50 AM 64.4 °F 64.4 °F 100% 30.12 in 4.0 mi North 4.6 mph - N/A   Overcast
7:50 AM 64.4 °F 64.4 °F 100% 30.14 in 4.0 mi North 5.8 mph - N/A   Overcast
8:50 AM 64.4 °F 62.6 °F 94% 30.15 in 7.0 mi North 5.8 mph - N/A   Overcast
9:50 AM 64.4 °F 62.6 °F 94% 30.17 in 10.0 mi North 6.9 mph - N/A   Overcast
10:50 AM 66.2 °F 62.6 °F 88% 30.17 in 10.0 mi North 6.9 mph - N/A   Overcast
11:50 AM 66.2 °F 62.6 °F 88% 30.15 in 8.0 mi NNW 3.5 mph - N/A   Overcast
12:50 PM 66.2 °F 62.6 °F 88% 30.12 in 10.0 mi North 6.9 mph - N/A   Overcast
1:58 PM 66.2 °F 62.6 °F 88% 30.10 in 10.0 mi NNW 5.8 mph - N/A   Overcast
2:50 PM 66.2 °F 62.6 °F 88% 30.10 in 10.0 mi NNW 5.8 mph - N/A   Overcast
3:50 PM 66.2 °F 62.6 °F 88% 30.10 in 10.0 mi North 4.6 mph - N/A   Overcast
4:50 PM 64.4 °F 60.8 °F 88% 30.11 in 10.0 mi NNE 6.9 mph - N/A   Overcast
5:50 PM 64.4 °F 60.8 °F 88% 30.12 in 7.0 mi NNE 9.2 mph - N/A   Overcast
6:50 PM 62.6 °F 60.8 °F 94% 30.13 in 7.0 mi NNE 6.9 mph - N/A   Overcast
7:50 PM 62.6 °F 60.8 °F 94% 30.14 in 7.0 mi NE 6.9 mph - N/A   Overcast
8:50 PM 60.8 °F 60.8 °F 100% 30.15 in 3.0 mi NNE 6.9 mph - N/A   Overcast
9:50 PM 60.8 °F 59.0 °F 94% 30.16 in 7.0 mi NNE 11.5 mph - N/A   Overcast
9:55 PM 59.0 °F 59.0 °F 100% 30.16 in 7.0 mi NE 9.2 mph - N/A   Overcast
10:15 PM 59.0 °F 59.0 °F 100% 30.16 in 10.0 mi NNE 9.2 mph - N/A   Overcast
10:35 PM 60.8 °F 57.2 °F 88% 30.16 in 10.0 mi NNE 5.8 mph - N/A   Overcast
10:55 PM 60.8 °F 57.2 °F 88% 30.16 in 10.0 mi NNE 8.1 mph - N/A   Overcast
11:15 PM 60.8 °F 57.2 °F 88% 30.16 in 10.0 mi North 5.8 mph - N/A   Overcast
11:35 PM 59.0 °F 57.2 °F 94% 30.16 in 10.0 mi North 5.8 mph - N/A   Overcast
11:55 PM 59.0 °F 57.2 °F 94% 30.15 in 10.0 mi NNE 6.9 mph - N/A   Overcast